QPF
0.00 0.00 0.00 0.00 0.00 0.00 0.00 0.00 0.00 0.00 0.00 0.00 0.00 0.00 0.00 0.00 0.00 0.00 0.00 0.00 0.00 0.00 0.00 0.00 0.00 0.00 0.00 0.00 0.00 0.00 0.00 0.00 0.00 0.00 0.00 0.00 0.00 0.00 0.00 0.00 0.00 0.00 0.00 0.00
0.00 0.00 0.00 0.00 0.00 0.00 0.00 0.00 0.00 0.00 0.00 0.00 0.00 0.00 0.00 0.00 0.00 0.00 0.00 0.00 0.00 0.00 0.00 0.00 0.00 0.00 0.00 0.00 0.00 0.00 0.00 0.00 0.00 0.00 0.00 0.00 0.00 0.00 0.00 0.00 0.00 0.00 0.00 0.00
0.00 0.00 0.00 0.00 0.00 0.00 0.00 0.00 0.00 0.00 0.00 0.00 0.00 0.00 0.00 0.00 0.00 0.00 0.00 0.00 0.00 0.00 0.00 0.00 0.00 0.00 0.00 0.00 0.00 0.00 0.00 0.00 0.00 0.00 0.00 0.00 0.00 0.00 0.00 0.00 0.00 0.00 0.00 0.00
0.01 0.00 0.00 0.00 0.00 0.00 0.00 0.00 0.00 0.00 0.00 0.00 0.00 0.00 0.00 0.00 0.00 0.00 0.00 0.00 0.00 0.00 0.00 0.00 0.00 0.00 0.00 0.00 0.00 0.00 0.00 0.00 0.00 0.00 0.00 0.00 0.00 0.00 0.00 0.00 0.00 0.00 0.00 0.00
0.01 0.01 0.00 0.00 0.00 0.00 0.00 0.00 0.00 0.00 0.00 0.00 0.00 0.00 0.00 0.00 0.00 0.00 0.00 0.00 0.00 0.00 0.00 0.00 0.00 0.00 0.00 0.00 0.00 0.00 0.00 0.00 0.00 0.00 0.00 0.00 0.00 0.00 0.00 0.00 0.00 0.00 0.00 0.00
0.02 0.01 0.00 0.00 0.00 0.00 0.00 0.00 0.00 0.00 0.00 0.00 0.00 0.00 0.00 0.00 0.00 0.00 0.00 0.00 0.00 0.00 0.00 0.00 0.00 0.00 0.00 0.00 0.00 0.00 0.00 0.00 0.00 0.00 0.00 0.00 0.00 0.00 0.00 0.00 0.00 0.00 0.00 0.00
0.01 0.01 0.00 0.00 0.00 0.00 0.00 0.00 0.00 0.00 0.00 0.00 0.00 0.00 0.00 0.00 0.00 0.00 0.00 0.00 0.00 0.00 0.00 0.00 0.00 0.00 0.00 0.00 0.00 0.00 0.00 0.00 0.00 0.00 0.00 0.00 0.00 0.00 0.00 0.00 0.00 0.00 0.00 0.00
0.01 0.02 0.01 0.00 0.00 0.00 0.00 0.00 0.00 0.00 0.00 0.00 0.00 0.00 0.00 0.00 0.00 0.00 0.00 0.00 0.00 0.01 0.01 0.00 0.00 0.00 0.00 0.00 0.00 0.00 0.00 0.00 0.00 0.00 0.00 0.00 0.00 0.00 0.00 0.00 0.00 0.00 0.00 0.00
0.01 0.00 0.00 0.00 0.00 0.00 0.00 0.00 0.00 0.00 0.00 0.00 0.00 0.00 0.00 0.00 0.00 0.00 0.00 0.00 0.00 0.01 0.01 0.01 0.01 0.01 0.00 0.00 0.00 0.00 0.00 0.00 0.00 0.00 0.00 0.00 0.00 0.00 0.00 0.00 0.00 0.00 0.00 0.00
0.00 0.00 0.00 0.00 0.00 0.00 0.00 0.00 0.01 0.00 0.00 0.00 0.00 0.00 0.00 0.00 0.00 0.00 0.00 0.00 0.00 0.00 0.00 0.00 0.00 0.00 0.00 0.00 0.00 0.00 0.00 0.00 0.00 0.00 0.00 0.00 0.00 0.00 0.00 0.00 0.00 0.00 0.00 0.00
0.00 0.00 0.00 0.00 0.00 0.00 0.00 0.01 0.01 0.01 0.00 0.00 0.00 0.00 0.00 0.00 0.00 0.00 0.00 0.00 0.00 0.00 0.00 0.00 0.00 0.00 0.00 0.00 0.00 0.00 0.00 0.00 0.00 0.00 0.00 0.00 0.00 0.00 0.00 0.00 0.00 0.00 0.00 0.00
0.00 0.00 0.00 0.00 0.00 0.00 0.00 0.00 0.01 0.01 0.01 0.00 0.00 0.00 0.00 0.00 0.00 0.00 0.00 0.00 0.00 0.00 0.00 0.00 0.00 0.00 0.00 0.00 0.00 0.00 0.00 0.00 0.00 0.00 0.00 0.00 0.00 0.00 0.00 0.00 0.00 0.00 0.00 0.00
0.00 0.00 0.00 0.00 0.00 0.00 0.00 0.00 0.00 0.00 0.00 0.00 0.00 0.00 0.00 0.00 0.00 0.00 0.00 0.00 0.00 0.00 0.00 0.00 0.00 0.00 0.00 0.00 0.00 0.00 0.00 0.00 0.00 0.00 0.00 0.00 0.00 0.00 0.00 0.00 0.00 0.00 0.00 0.00
0.00 0.00 0.01 0.01 0.00 0.00 0.00 0.00 0.00 0.00 0.00 0.00 0.00 0.00 0.00 0.00 0.00 0.00 0.00 0.00 0.00 0.00 0.00 0.00 0.00 0.00 0.00 0.00 0.00 0.00 0.00 0.00 0.00 0.00 0.00 0.00 0.00 0.00 0.00 0.00 0.00 0.00 0.00 0.00
0.00 0.00 0.00 0.00 0.00 0.00 0.00 0.00 0.00 0.00 0.00 0.00 0.00 0.00 0.00 0.00 0.00 0.00 0.00 0.00 0.00 0.00 0.00 0.00 0.00 0.00 0.00 0.00 0.00 0.00 0.00 0.00 0.00 0.00 0.00 0.00 0.00 0.00 0.00 0.00 0.00 0.00 0.00 0.00
0.01 0.01 0.00 0.00 0.00 0.00 0.00 0.00 0.00 0.00 0.00 0.00 0.00 0.00 0.00 0.00 0.00 0.00 0.00 0.00 0.00 0.00 0.00 0.00 0.00 0.00 0.00 0.00 0.00 0.00 0.00 0.00 0.00 0.00 0.00 0.00 0.00 0.00 0.00 0.00 0.00 0.00 0.00 0.00
0.01 0.01 0.01 0.01 0.01 0.01 0.01 0.01 0.01 0.01 0.01 0.00 0.00 0.00 0.00 0.00 0.00 0.00 0.00 0.00 0.00 0.00 0.00 0.00 0.00 0.00 0.00 0.00 0.00 0.00 0.00 0.00 0.00 0.00 0.00 0.00 0.00 0.00 0.00 0.00 0.00 0.00 0.00 0.00
0.01 0.01 0.01 0.01 0.01 0.01 0.01 0.01 0.01 0.01 0.01 0.00 0.00 0.00 0.00 0.00 0.00 0.00 0.00 0.00 0.00 0.00 0.00 0.00 0.00 0.00 0.00 0.00 0.00 0.00 0.00 0.00 0.00 0.00 0.00 0.00 0.00 0.00 0.00 0.00 0.00 0.00 0.00 0.00
0.00 0.00 0.00 0.00 0.00 0.00 0.00 0.00 0.00 0.00 0.00 0.00 0.00 0.00 0.00 0.00 0.00 0.00 0.00 0.00 0.00 0.00 0.00 0.00 0.00 0.00 0.00 0.00 0.00 0.01 0.00 0.00 0.00 0.00 0.00 0.00 0.00 0.00 0.00 0.00 0.00 0.00 0.00 0.00
0.00 0.01 0.01 0.01 0.01 0.01 0.00 0.00 0.00 0.00 0.00 0.00 0.00 0.00 0.00 0.00 0.00 0.00 0.00 0.00 0.00 0.00 0.00 0.00 0.01 0.01 0.01 0.01 0.01 0.01 0.01 0.01 0.01 0.00 0.00 0.00 0.00 0.00 0.00 0.00 0.00 0.00 0.00 0.01
0.01 0.01 0.01 0.01 0.01 0.01 0.00 0.00 0.00 0.00 0.00 0.00 0.00 0.00 0.00 0.00 0.00 0.00 0.00 0.00 0.00 0.00 0.01 0.01 0.01 0.01 0.01 0.01 0.01 0.01 0.01 0.01 0.01 0.01 0.01 0.00 0.00 0.00 0.00 0.01 0.01 0.01 0.01 0.01
0.01 0.01 0.01 0.01 0.01 0.01 0.01 0.01 0.00 0.00 0.00 0.00 0.00 0.00 0.00 0.00 0.00 0.00 0.01 0.01 0.01 0.01 0.01 0.01 0.01 0.01 0.01 0.01 0.01 0.01 0.01 0.01 0.01 0.01 0.01 0.01 0.01 0.01 0.01 0.01 0.01 0.01 0.01 0.01
0.01 0.01 0.01 0.01 0.00 0.00 0.00 0.00 0.00 0.00 0.00 0.00 0.00 0.00 0.00 0.01 0.01 0.01 0.01 0.01 0.01 0.01 0.01 0.01 0.01 0.01 0.01 0.01 0.01 0.01 0.01 0.01 0.01 0.01 0.01 0.01 0.01 0.01 0.01 0.01 0.01 0.01 0.01 0.01
0.01 0.00 0.00 0.00 0.00 0.00 0.00 0.00 0.00 0.00 0.00 0.00 0.00 0.00 0.00 0.00 0.00 0.00 0.01 0.01 0.01 0.00 0.00 0.00 0.00 0.00 0.01 0.01 0.00 0.01 0.01 0.01 0.01 0.01 0.01 0.01 0.01 0.01 0.01 0.01 0.01 0.01 0.01 0.01
0.00 0.00 0.00 0.00 0.00 0.00 0.00 0.00 0.00 0.00 0.00 0.00 0.00 0.00 0.00 0.00 0.00 0.00 0.00 0.00 0.00 0.00 0.00 0.00 0.00 0.00 0.01 0.01 0.01 0.01 0.01 0.01 0.01 0.01 0.01 0.01 0.01 0.01 0.01 0.01 0.01 0.01 0.01 0.01
0.00 0.00 0.00 0.00 0.00 0.00 0.00 0.00 0.00 0.00 0.00 0.00 0.00 0.00 0.00 0.00 0.00 0.00 0.00 0.00 0.00 0.00 0.00 0.00 0.00 0.00 0.01 0.01 0.01 0.01 0.01 0.01 0.01 0.01 0.01 0.01 0.01 0.01 0.01 0.01 0.01 0.01 0.01 0.01
0.00 0.00 0.00 0.00 0.00 0.01 0.01 0.01 0.01 0.01 0.00 0.00 0.00 0.00 0.00 0.00 0.00 0.00 0.00 0.00 0.00 0.00 0.00 0.00 0.00 0.00 0.00 0.00 0.01 0.01 0.01 0.01 0.01 0.01 0.01 0.01 0.01 0.01 0.01 0.01 0.01 0.01 0.01 0.01
MSLP
1015.85 1015.33 1014.79 1014.26 1013.78 1013.36 1013.01 1012.73 1012.50 1012.33 1012.18 1012.06 1011.97 1011.90 1011.88 1011.92 1012.03 1012.21 1012.47 1012.80 1013.19 1013.63 1014.09 1014.57 1015.05 1015.51 1015.95 1016.37 1016.76 1017.12 1017.43 1017.72 1017.96 1018.17 1018.34 1018.48 1018.60 1018.71 1018.81 1018.90 1018.99 1019.09 1019.18 1019.27
1016.43 1015.93 1015.37 1014.79 1014.22 1013.69 1013.22 1012.84 1012.55 1012.33 1012.18 1012.08 1012.04 1012.03 1012.08 1012.16 1012.30 1012.49 1012.74 1013.04 1013.39 1013.79 1014.22 1014.67 1015.14 1015.60 1016.04 1016.47 1016.86 1017.21 1017.53 1017.80 1018.02 1018.21 1018.36 1018.48 1018.58 1018.66 1018.74 1018.81 1018.88 1018.95 1019.02 1019.08
1016.94 1016.46 1015.88 1015.25 1014.60 1013.98 1013.42 1012.96 1012.60 1012.35 1012.20 1012.14 1012.16 1012.22 1012.34 1012.48 1012.66 1012.87 1013.11 1013.39 1013.71 1014.07 1014.46 1014.88 1015.31 1015.76 1016.19 1016.60 1016.99 1017.33 1017.64 1017.89 1018.11 1018.28 1018.41 1018.52 1018.60 1018.67 1018.72 1018.77 1018.82 1018.86 1018.90 1018.92
1017.24 1016.77 1016.19 1015.53 1014.83 1014.15 1013.53 1013.02 1012.63 1012.38 1012.26 1012.25 1012.34 1012.49 1012.68 1012.89 1013.13 1013.36 1013.61 1013.88 1014.17 1014.48 1014.82 1015.19 1015.58 1015.98 1016.38 1016.76 1017.13 1017.45 1017.74 1017.98 1018.18 1018.34 1018.47 1018.56 1018.64 1018.69 1018.73 1018.76 1018.78 1018.79 1018.79 1018.77
1017.25 1016.79 1016.21 1015.53 1014.82 1014.12 1013.49 1012.98 1012.61 1012.39 1012.33 1012.40 1012.57 1012.82 1013.10 1013.40 1013.69 1013.97 1014.23 1014.48 1014.73 1014.99 1015.27 1015.57 1015.90 1016.24 1016.59 1016.93 1017.25 1017.55 1017.81 1018.04 1018.23 1018.38 1018.50 1018.60 1018.66 1018.71 1018.73 1018.74 1018.73 1018.70 1018.66 1018.60
1016.94 1016.48 1015.91 1015.25 1014.55 1013.88 1013.29 1012.82 1012.52 1012.38 1012.40 1012.57 1012.86 1013.21 1013.59 1013.96 1014.31 1014.62 1014.89 1015.13 1015.34 1015.55 1015.76 1015.99 1016.24 1016.51 1016.79 1017.08 1017.35 1017.62 1017.85 1018.06 1018.24 1018.39 1018.51 1018.59 1018.65 1018.69 1018.70 1018.68 1018.64 1018.57 1018.48 1018.37
1016.35 1015.89 1015.33 1014.70 1014.07 1013.47 1012.96 1012.59 1012.38 1012.35 1012.49 1012.77 1013.16 1013.61 1014.08 1014.53 1014.93 1015.27 1015.55 1015.76 1015.94 1016.09 1016.24 1016.40 1016.57 1016.77 1016.98 1017.21 1017.44 1017.66 1017.87 1018.05 1018.22 1018.36 1018.47 1018.55 1018.60 1018.62 1018.60 1018.56 1018.48 1018.37 1018.23 1018.06
1015.55 1015.09 1014.56 1014.00 1013.45 1012.95 1012.56 1012.31 1012.23 1012.32 1012.58 1012.97 1013.45 1013.99 1014.53 1015.04 1015.48 1015.84 1016.11 1016.32 1016.46 1016.57 1016.66 1016.76 1016.87 1017.00 1017.15 1017.32 1017.51 1017.69 1017.87 1018.03 1018.18 1018.30 1018.40 1018.46 1018.49 1018.49 1018.44 1018.36 1018.24 1018.08 1017.90 1017.69
1014.66 1014.21 1013.72 1013.25 1012.80 1012.44 1012.18 1012.07 1012.12 1012.33 1012.68 1013.16 1013.72 1014.31 1014.89 1015.43 1015.89 1016.26 1016.54 1016.73 1016.85 1016.93 1016.99 1017.05 1017.11 1017.20 1017.31 1017.44 1017.58 1017.73 1017.87 1018.01 1018.13 1018.23 1018.30 1018.33 1018.33 1018.29 1018.21 1018.09 1017.92 1017.72 1017.49 1017.25
1013.80 1013.36 1012.94 1012.55 1012.23 1012.00 1011.89 1011.91 1012.07 1012.38 1012.81 1013.34 1013.94 1014.55 1015.14 1015.68 1016.14 1016.51 1016.78 1016.97 1017.09 1017.16 1017.21 1017.25 1017.30 1017.37 1017.45 1017.55 1017.66 1017.78 1017.89 1018.00 1018.08 1018.14 1018.17 1018.17 1018.12 1018.04 1017.91 1017.74 1017.54 1017.30 1017.04 1016.76
1013.04 1012.62 1012.27 1011.99 1011.80 1011.70 1011.72 1011.85 1012.11 1012.48 1012.96 1013.51 1014.10 1014.70 1015.27 1015.79 1016.24 1016.59 1016.87 1017.06 1017.19 1017.28 1017.34 1017.39 1017.44 1017.50 1017.58 1017.66 1017.75 1017.84 1017.91 1017.98 1018.02 1018.03 1018.01 1017.95 1017.86 1017.72 1017.55 1017.34 1017.09 1016.82 1016.54 1016.24
1012.40 1012.04 1011.77 1011.60 1011.53 1011.55 1011.68 1011.91 1012.23 1012.64 1013.13 1013.66 1014.22 1014.78 1015.31 1015.79 1016.20 1016.55 1016.82 1017.03 1017.18 1017.29 1017.38 1017.46 1017.53 1017.60 1017.67 1017.74 1017.81 1017.86 1017.90 1017.92 1017.91 1017.87 1017.79 1017.68 1017.53 1017.35 1017.13 1016.88 1016.60 1016.31 1016.01 1015.71
1011.88 1011.59 1011.42 1011.36 1011.40 1011.54 1011.75 1012.05 1012.41 1012.83 1013.30 1013.80 1014.31 1014.81 1015.29 1015.72 1016.11 1016.43 1016.71 1016.93 1017.11 1017.25 1017.37 1017.47 1017.56 1017.64 1017.71 1017.76 1017.80 1017.82 1017.82 1017.78 1017.72 1017.62 1017.49 1017.33 1017.13 1016.90 1016.64 1016.36 1016.07 1015.76 1015.46 1015.16
1011.44 1011.23 1011.17 1011.22 1011.37 1011.60 1011.90 1012.24 1012.63 1013.05 1013.49 1013.94 1014.39 1014.83 1015.25 1015.64 1016.00 1016.31 1016.58 1016.82 1017.01 1017.18 1017.32 1017.43 1017.53 1017.60 1017.66 1017.69 1017.69 1017.67 1017.61 1017.53 1017.42 1017.27 1017.09 1016.88 1016.64 1016.38 1016.09 1015.80 1015.49 1015.18 1014.88 1014.60
1011.04 1010.94 1010.99 1011.15 1011.40 1011.72 1012.07 1012.45 1012.85 1013.26 1013.67 1014.08 1014.48 1014.87 1015.24 1015.59 1015.92 1016.22 1016.48 1016.72 1016.92 1017.09 1017.23 1017.34 1017.42 1017.47 1017.49 1017.48 1017.44 1017.37 1017.27 1017.14 1016.98 1016.79 1016.58 1016.33 1016.07 1015.79 1015.49 1015.18 1014.88 1014.57 1014.28 1014.00
1010.68 1010.71 1010.87 1011.14 1011.47 1011.86 1012.26 1012.67 1013.08 1013.47 1013.86 1014.23 1014.60 1014.95 1015.28 1015.60 1015.90 1016.18 1016.43 1016.65 1016.84 1016.99 1017.11 1017.19 1017.23 1017.24 1017.21 1017.15 1017.06 1016.94 1016.79 1016.62 1016.42 1016.21 1015.97 1015.71 1015.43 1015.14 1014.84 1014.53 1014.23 1013.93 1013.64 1013.38
1010.41 1010.56 1010.83 1011.18 1011.60 1012.03 1012.47 1012.90 1013.31 1013.70 1014.06 1014.41 1014.75 1015.07 1015.38 1015.67 1015.95 1016.20 1016.43 1016.62 1016.78 1016.89 1016.96 1016.99 1016.98 1016.92 1016.83 1016.71 1016.57 1016.40 1016.21 1016.01 1015.79 1015.55 1015.30 1015.03 1014.75 1014.46 1014.16 1013.85 1013.54 1013.25 1012.96 1012.70
1010.27 1010.54 1010.90 1011.33 1011.80 1012.27 1012.73 1013.16 1013.57 1013.95 1014.30 1014.63 1014.94 1015.24 1015.53 1015.80 1016.05 1016.28 1016.47 1016.62 1016.73 1016.78 1016.79 1016.75 1016.67 1016.55 1016.40 1016.22 1016.02 1015.81 1015.58 1015.35 1015.12 1014.87 1014.61 1014.34 1014.06 1013.76 1013.46 1013.15 1012.84 1012.54 1012.25 1011.99
1010.35 1010.71 1011.15 1011.63 1012.12 1012.60 1013.06 1013.49 1013.88 1014.24 1014.57 1014.89 1015.18 1015.46 1015.73 1015.98 1016.20 1016.39 1016.54 1016.64 1016.69 1016.68 1016.62 1016.51 1016.36 1016.17 1015.96 1015.72 1015.48 1015.23 1014.98 1014.73 1014.47 1014.22 1013.95 1013.67 1013.38 1013.08 1012.76 1012.44 1012.12 1011.80 1011.51 1011.23
1010.68 1011.11 1011.59 1012.09 1012.59 1013.06 1013.50 1013.90 1014.26 1014.59 1014.90 1015.19 1015.46 1015.72 1015.96 1016.18 1016.36 1016.51 1016.62 1016.67 1016.66 1016.59 1016.47 1016.30 1016.08 1015.84 1015.57 1015.29 1015.01 1014.72 1014.45 1014.17 1013.90 1013.62 1013.34 1013.05 1012.74 1012.42 1012.08 1011.74 1011.40 1011.06 1010.75 1010.46
1011.24 1011.72 1012.21 1012.71 1013.18 1013.62 1014.02 1014.38 1014.70 1014.99 1015.27 1015.52 1015.76 1015.99 1016.20 1016.38 1016.53 1016.64 1016.70 1016.70 1016.64 1016.52 1016.34 1016.12 1015.86 1015.57 1015.26 1014.94 1014.63 1014.32 1014.01 1013.71 1013.41 1013.11 1012.80 1012.47 1012.14 1011.78 1011.42 1011.05 1010.68 1010.33 1010.00 1009.70
1011.99 1012.48 1012.96 1013.43 1013.87 1014.26 1014.61 1014.91 1015.18 1015.43 1015.66 1015.87 1016.07 1016.26 1016.43 1016.58 1016.69 1016.75 1016.77 1016.73 1016.62 1016.46 1016.25 1015.99 1015.69 1015.37 1015.03 1014.69 1014.34 1014.00 1013.66 1013.33 1012.99 1012.65 1012.30 1011.94 1011.56 1011.17 1010.78 1010.38 1009.99 1009.62 1009.27 1008.96
1012.82 1013.30 1013.76 1014.19 1014.57 1014.91 1015.20 1015.45 1015.66 1015.86 1016.04 1016.20 1016.36 1016.51 1016.64 1016.74 1016.81 1016.83 1016.81 1016.73 1016.59 1016.40 1016.16 1015.87 1015.56 1015.21 1014.86 1014.49 1014.12 1013.74 1013.37 1013.00 1012.62 1012.23 1011.83 1011.42 1011.01 1010.59 1010.16 1009.74 1009.34 1008.95 1008.60 1008.29
1013.63 1014.08 1014.51 1014.89 1015.22 1015.50 1015.73 1015.93 1016.10 1016.24 1016.37 1016.49 1016.61 1016.71 1016.79 1016.85 1016.87 1016.86 1016.80 1016.68 1016.52 1016.31 1016.05 1015.75 1015.42 1015.06 1014.68 1014.30 1013.90 1013.50 1013.09 1012.67 1012.24 1011.81 1011.37 1010.92 1010.47 1010.02 1009.58 1009.15 1008.74 1008.36 1008.01 1007.70
1014.34 1014.76 1015.14 1015.47 1015.75 1015.98 1016.17 1016.32 1016.44 1016.54 1016.63 1016.71 1016.78 1016.83 1016.87 1016.88 1016.86 1016.81 1016.71 1016.57 1016.38 1016.15 1015.88 1015.57 1015.23 1014.86 1014.47 1014.07 1013.65 1013.22 1012.77 1012.32 1011.86 1011.39 1010.91 1010.43 1009.96 1009.50 1009.05 1008.62 1008.22 1007.85 1007.51 1007.21
1014.91 1015.28 1015.62 1015.91 1016.15 1016.34 1016.49 1016.60 1016.69 1016.75 1016.80 1016.84 1016.87 1016.87 1016.87 1016.83 1016.77 1016.68 1016.54 1016.37 1016.16 1015.91 1015.62 1015.31 1014.96 1014.59 1014.19 1013.77 1013.34 1012.88 1012.42 1011.94 1011.45 1010.96 1010.47 1009.98 1009.50 1009.04 1008.60 1008.19 1007.81 1007.45 1007.13 1006.83
1015.35 1015.68 1015.97 1016.22 1016.42 1016.58 1016.70 1016.78 1016.84 1016.87 1016.89 1016.89 1016.87 1016.84 1016.78 1016.70 1016.60 1016.46 1016.29 1016.09 1015.85 1015.58 1015.29 1014.96 1014.61 1014.23 1013.83 1013.41 1012.97 1012.52 1012.04 1011.56 1011.06 1010.57 1010.08 1009.59 1009.13 1008.68 1008.26 1007.87 1007.51 1007.17 1006.86 1006.56
Thickness
5550 5555 5553 5552 5553 5553 5549 5548 5546 5557 5563 5568 5567 5566 5565 5564 5562 5561 5559 5557 5555 5552 5550 5548 5547 5544 5541 5538 5535 5533 5529 5527 5524 5523 5521 5520 5518 5517 5516 5515 5513 5511 5509 5507
5538 5549 5548 5547 5552 5553 5552 5554 5555 5557 5560 5568 5566 5564 5560 5559 5556 5554 5552 5550 5548 5546 5543 5540 5538 5535 5533 5529 5526 5523 5520 5518 5516 5514 5511 5510 5509 5507 5505 5504 5502 5501 5499 5497
5529 5545 5543 5542 5559 5555 5553 5556 5554 5550 5557 5561 5558 5556 5553 5551 5549 5547 5544 5542 5539 5536 5533 5531 5528 5526 5523 5520 5517 5513 5511 5509 5506 5504 5502 5500 5499 5496 5495 5493 5492 5490 5488 5486
5518 5526 5520 5556 5563 5562 5556 5555 5553 5553 5553 5552 5550 5548 5546 5543 5540 5537 5536 5534 5531 5527 5524 5521 5519 5516 5513 5510 5506 5503 5501 5499 5497 5494 5492 5490 5487 5485 5484 5483 5481 5480 5478 5476
5509 5513 5530 5551 5552 5550 5546 5544 5549 5546 5545 5543 5541 5537 5534 5535 5532 5529 5526 5523 5520 5517 5513 5510 5508 5505 5502 5499 5495 5493 5491 5489 5487 5484 5482 5479 5477 5475 5474 5472 5471 5469 5468 5466
5502 5504 5518 5544 5541 5541 5537 5530 5540 5538 5533 5530 5527 5517 5519 5524 5522 5519 5517 5512 5509 5505 5502 5499 5496 5494 5490 5487 5484 5482 5480 5478 5476 5474 5471 5469 5467 5466 5464 5462 5460 5459 5457 5455
5488 5494 5514 5532 5528 5526 5516 5522 5526 5526 5522 5519 5513 5511 5512 5512 5510 5507 5504 5500 5497 5494 5490 5487 5485 5482 5478 5476 5473 5472 5470 5468 5465 5463 5461 5459 5457 5455 5453 5451 5449 5447 5446 5444
5486 5486 5503 5518 5512 5510 5512 5514 5513 5511 5508 5506 5503 5502 5501 5499 5496 5494 5490 5488 5485 5480 5478 5476 5474 5470 5467 5465 5463 5461 5458 5456 5454 5452 5450 5449 5445 5443 5441 5439 5437 5435 5434 5432
5493 5501 5510 5507 5506 5506 5503 5500 5499 5497 5495 5493 5490 5487 5487 5485 5482 5480 5478 5476 5473 5469 5466 5464 5462 5459 5456 5455 5452 5450 5447 5444 5442 5441 5439 5437 5434 5431 5429 5427 5425 5424 5422 5421
5487 5497 5501 5499 5496 5494 5492 5488 5487 5485 5483 5481 5477 5475 5473 5471 5469 5467 5466 5463 5460 5457 5454 5453 5451 5448 5446 5444 5441 5438 5436 5433 5431 5429 5427 5425 5423 5421 5418 5416 5414 5413 5411 5409
5471 5484 5485 5487 5484 5483 5481 5478 5475 5473 5471 5468 5465 5463 5461 5459 5457 5455 5453 5450 5447 5445 5443 5442 5440 5437 5435 5432 5429 5427 5424 5422 5420 5418 5416 5414 5412 5410 5408 5407 5404 5402 5400 5398
5465 5475 5470 5472 5473 5472 5468 5465 5463 5460 5458 5456 5453 5451 5450 5447 5445 5443 5440 5438 5435 5433 5431 5429 5427 5425 5423 5421 5418 5415 5413 5411 5408 5406 5404 5402 5400 5398 5398 5396 5395 5393 5391 5388
5464 5465 5462 5462 5461 5459 5456 5454 5451 5448 5446 5443 5441 5439 5438 5435 5433 5430 5428 5425 5423 5421 5419 5417 5415 5414 5412 5409 5406 5404 5401 5399 5397 5395 5392 5390 5388 5386 5385 5385 5384 5382 5380 5378
5451 5448 5446 5447 5445 5445 5443 5441 5439 5435 5433 5430 5428 5426 5424 5422 5420 5418 5416 5414 5412 5409 5407 5405 5403 5402 5401 5398 5395 5392 5390 5388 5386 5383 5381 5379 5377 5375 5373 5371 5370 5369 5368 5366
5438 5435 5434 5434 5432 5430 5429 5426 5422 5420 5418 5417 5415 5412 5411 5409 5407 5406 5404 5402 5399 5397 5395 5393 5392 5391 5389 5387 5384 5381 5379 5377 5374 5372 5370 5368 5366 5364 5362 5360 5359 5358 5357 5355
5424 5422 5420 5418 5416 5415 5413 5410 5408 5407 5405 5404 5401 5399 5398 5396 5394 5393 5391 5389 5386 5385 5384 5382 5381 5381 5378 5376 5372 5370 5368 5367 5364 5361 5359 5356 5354 5352 5350 5349 5348 5346 5345 5343
5405 5404 5402 5401 5401 5400 5399 5397 5396 5394 5392 5390 5389 5387 5385 5383 5381 5380 5379 5378 5376 5375 5373 5371 5370 5369 5367 5364 5361 5359 5357 5355 5354 5351 5348 5345 5343 5341 5340 5338 5337 5336 5334 5332
5392 5393 5392 5391 5389 5388 5387 5386 5384 5382 5380 5379 5377 5375 5372 5370 5369 5369 5368 5366 5364 5363 5362 5360 5358 5357 5355 5353 5351 5348 5346 5344 5342 5340 5338 5335 5333 5331 5329 5328 5326 5325 5324 5322
5379 5379 5379 5378 5377 5376 5374 5373 5372 5370 5369 5367 5365 5363 5361 5360 5358 5357 5356 5353 5352 5351 5352 5350 5349 5347 5345 5343 5341 5338 5335 5333 5331 5329 5327 5326 5324 5321 5319 5318 5316 5315 5313 5312
5364 5364 5364 5364 5364 5362 5361 5360 5359 5357 5356 5355 5353 5351 5350 5349 5347 5345 5344 5342 5342 5342 5342 5341 5339 5337 5335 5333 5331 5328 5325 5323 5321 5319 5317 5315 5313 5312 5310 5308 5306 5305 5304 5303
5349 5349 5349 5348 5348 5348 5347 5347 5346 5345 5344 5343 5341 5339 5338 5338 5336 5334 5332 5332 5334 5332 5331 5331 5328 5326 5324 5323 5321 5318 5316 5314 5312 5310 5308 5306 5304 5303 5301 5299 5298 5297 5296 5295
5337 5337 5336 5336 5336 5336 5335 5334 5334 5333 5333 5331 5330 5328 5327 5326 5325 5324 5323 5323 5324 5323 5321 5319 5317 5316 5314 5313 5311 5309 5306 5304 5303 5301 5299 5298 5296 5295 5293 5292 5290 5289 5288 5287
5325 5325 5325 5325 5324 5324 5324 5323 5322 5322 5321 5320 5319 5318 5317 5316 5315 5314 5315 5315 5314 5313 5311 5309 5308 5307 5306 5304 5301 5299 5298 5296 5295 5294 5292 5291 5289 5288 5286 5285 5284 5283 5282 5281
5314 5314 5314 5313 5313 5312 5312 5313 5312 5311 5311 5310 5310 5309 5308 5306 5306 5306 5305 5306 5306 5304 5302 5301 5300 5299 5297 5295 5293 5291 5290 5289 5287 5286 5285 5284 5283 5281 5280 5279 5279 5278 5277 5276
5303 5302 5301 5301 5300 5301 5302 5302 5301 5301 5300 5300 5301 5300 5299 5297 5296 5297 5295 5295 5295 5294 5292 5291 5291 5290 5288 5286 5284 5283 5283 5282 5280 5279 5278 5277 5276 5275 5274 5274 5273 5273 5272 5271
5292 5292 5293 5293 5293 5293 5292 5292 5291 5291 5291 5291 5291 5290 5289 5288 5287 5287 5286 5285 5284 5284 5282 5281 5280 5280 5278 5277 5277 5276 5275 5275 5274 5273 5272 5271 5270 5269 5269 5268 5268 5268 5267 5267
5283 5283 5284 5284 5284 5284 5283 5282 5281 5281 5281 5280 5280 5280 5278 5277 5277 5276 5275 5275 5274 5273 5272 5272 5271 5271 5270 5270 5269 5269 5269 5268 5267 5266 5266 5265 5265 5264 5264 5263 5263 5263 5263 5263